Simultaneous Nadir Overpasses (SNOs) Predictions

Prediction of SNOs between LANDSAT-8 and METOP-B Satellite Orbit:

Table of predicted SNOs for the next 14.0 days since TLE Epoch: 7/5/2014
Index Date (LANDSAT-8) Time (LANDSAT-8) Lat,Lon (LANDSAT-8) SZA (LANDSAT-8 ) Date (METOP-B) Time (METOP-B) Lat,Lon (METOP-B) SZA (METOP-B ) Distance(km) Time Diff (sec)
1 07/05/2014 07:18:51 -81.15, -69.37 119.55 07/05/2014 07:18:43 -81.15, -69.48 119.56 1.90 8
2 07/05/2014 08:08:16 81.18, 98.69 60.52 07/05/2014 08:09:22 81.18, 98.73 60.56 0.69 66
3 07/08/2014 02:53:08 -81.15, -2.96 119.27 07/08/2014 02:53:03 -81.15, -3.00 119.28 0.80 5
4 07/08/2014 03:42:33 81.17, 165.08 60.80 07/08/2014 03:43:42 81.18, 165.16 60.84 1.53 69
5 07/10/2014 21:38:18 80.58,-111.57 59.89 07/10/2014 21:37:04 80.78,-112.08 59.98 24.04 74
6
